Flag for Argentina Weather for the Past 2 Weeks in Comodoro Rivadavia, Chubut, Argentina

Now
39 °F

Passing clouds.


Feels Like: 37 °F
Forecast: 37 / 50 °F
Wind: 3 mph from West

Location: Comodoro Rivadavia Aerodrome

Current Time: May 1, 2016 at 9:44:15 AM

Latest Report: May 1, 2016 at 9:00 AM


Visibility: N/A

Pressure: 30.04 "Hg

Humidity: 75%

Dew Point: 32 °F

Location of Comodoro RivadaviaLocation

Historic Weather in Comodoro Rivadavia — Graph

°F

Comodoro Rivadavia Temperature Yesterday

Maximum temperature yesterday: 61 °F (at 2:00 PM)
Minimum temperature yesterday: 36 °F (at 5:00 AM)
Average temperature yesterday: 47 °F

High & Low Weather Summary for the Past Weeks

 TemperatureHumidityPressure
High68 °F (Apr 19, 3:00 PM)100% (Apr 23, 8:00 AM)30.54 "Hg (Apr 23, 8:00 AM)
Low19 °F (May 1, 3:00 AM)22% (Apr 18, 3:00 PM)29.03 "Hg (Apr 20, 10:00 AM)
Average49 °F60%29.97 "Hg
* Reported Apr 16 8:00 AM — May 1 8:00 AM, Comodoro Rivadavia, Weather by CustomWeather, © 2016

Note: Actual official high and low records may vary slightly from our data, if they occured in-between our weather recording intervals... More about our weather records

Advertising

Comodoro Rivadavia Weather History for the Previous 24 Hours

Scroll right to see more
 ConditionsComfort  
Time TempWeatherWind HumidityBarometerVisibility
8:00 AM
Sun, May 1
41 °FPassing clouds.6 mph66%30.01 "HgN/A
7:00 AM41 °FClear.7 mph61%29.98 "Hg10 mi
6:00 AM41 °FClear.7 mph66%29.95 "Hg10 mi
5:00 AM43 °FClear.7 mph61%29.95 "Hg10 mi
4:00 AM45 °FClear.7 mph49%29.92 "Hg10 mi
3:00 AM19 °FClear.6 mph100%29.92 "Hg10 mi
2:00 AM46 °FClear.5 mph53%29.89 "Hg10 mi
1:00 AM48 °FClear.5 mph40%29.89 "Hg10 mi
12:00 AM50 °FClear.6 mph40%29.86 "Hg10 mi
11:00 PM
Sat, Apr 30
46 °FClear.7 mph53%29.86 "Hg10 mi
10:00 PM48 °FClear.6 mph58%29.83 "Hg10 mi
9:00 PM50 °FClear.5 mph54%29.83 "Hg10 mi
8:00 PM48 °FClear.6 mph62%29.80 "Hg10 mi
7:00 PM50 °FClear.2 mph88%29.80 "Hg10 mi
6:00 PM54 °FClear.3 mph72%N/A10 mi
5:00 PM55 °FSunny.2 mph67%29.80 "Hg10 mi
4:00 PM54 °FSunny.3 mph72%29.80 "Hg10 mi
3:00 PM55 °FPassing clouds.6 mph63%29.83 "HgN/A
2:00 PM61 °FSunny.10 mph42%29.86 "Hg10 mi
1:00 PM59 °FSunny.7 mph45%29.92 "Hg10 mi
12:00 PM52 °FSunny.3 mph58%29.95 "Hg10 mi
11:00 AM48 °FSunny.No wind71%29.98 "Hg10 mi
10:00 AM45 °FSunny.No wind71%30.01 "Hg10 mi
9:00 AM41 °FSunny.6 mph66%30.04 "Hg10 mi
Weather by CustomWeather, © 2016

See weather overviewHow to use our weather pages